RYR99ZG EGSS-LIPQ

Flight info

Callsign RYR99ZG
Flight time 1h 44m
Altitude 37000
Route CLN M84 KONAN UL607 MATUG DCT AMASI DCT BOMBI DCT DETEV DCT DINKU M867 XERUM DCT BAVAX DCT RADIZ DCT ARNOS P125 LUPIN
Aircraft B738/M-SDE2E3FGHIRWXY/LB1

Departure

Time 2026-05-04 10:50
Airport London Stansted Airport (EGSS)

Arrival

Time 2026-05-04 12:34
Airport Trieste Airport (LIPQ)
Time Latitude Longitude Altitude Speed Heading
2026-05-04 10:09 51.89213 0.26003 351 ft 0 kts 43°
2026-05-04 10:39 51.89210 0.25997 348 ft 4 kts 44°
2026-05-04 10:39 51.89193 0.25965 356 ft 4 kts 54°
2026-05-04 10:39 51.89180 0.25948 349 ft 4 kts 333°
2026-05-04 10:40 51.89164 0.25968 355 ft 4 kts 313°
2026-05-04 10:40 51.89156 0.25982 354 ft 0 kts 313°
2026-05-04 10:42 51.89158 0.25979 348 ft 2 kts 313°
2026-05-04 10:43 51.89192 0.25920 351 ft 12 kts 312°
2026-05-04 10:44 51.88888 0.24845 353 ft 25 kts 222°
2026-05-04 10:45 51.88744 0.24629 357 ft 29 kts 223°
2026-05-04 10:45 51.88599 0.24412 348 ft 28 kts 223°
2026-05-04 10:45 51.88463 0.24208 348 ft 26 kts 223°
2026-05-04 10:45 51.88333 0.24012 351 ft 27 kts 223°
2026-05-04 10:46 51.88187 0.23794 348 ft 29 kts 223°
2026-05-04 10:46 51.88034 0.23565 350 ft 29 kts 223°
2026-05-04 10:46 51.87889 0.23346 348 ft 28 kts 223°
2026-05-04 10:46 51.87754 0.23144 356 ft 23 kts 227°
2026-05-04 10:47 51.87761 0.22981 351 ft 16 kts 314°
2026-05-04 10:47 51.87760 0.22857 354 ft 12 kts 221°
2026-05-04 10:47 51.87692 0.22754 350 ft 15 kts 223°
2026-05-04 10:47 51.87616 0.22640 348 ft 15 kts 223°
2026-05-04 10:49 51.88111 0.22896 350 ft 104 kts 43°
2026-05-04 10:49 51.88787 0.23909 355 ft 158 kts 43°
2026-05-04 10:50 51.89597 0.25146 1000 ft 158 kts 42°
2026-05-04 10:51 51.89530 0.38933 4458 ft 246 kts 115°
2026-05-04 10:52 51.88638 0.41423 4800 ft 263 kts 125°
2026-05-04 10:52 51.87553 0.43794 5389 ft 269 kts 127°
2026-05-04 10:52 51.86404 0.46201 6068 ft 272 kts 128°
2026-05-04 10:54 51.78015 0.64029 10503 ft 316 kts 128°
2026-05-04 10:54 51.76649 0.66957 10706 ft 337 kts 128°
2026-05-04 10:56 51.66257 0.89220 15431 ft 366 kts 129°
2026-05-04 10:56 51.64715 0.92508 16133 ft 369 kts 129°
2026-05-04 10:56 51.63160 0.95818 16821 ft 372 kts 129°
2026-05-04 10:57 51.61587 0.99164 17464 ft 378 kts 129°
2026-05-04 10:57 51.59990 1.02554 18087 ft 383 kts 129°
2026-05-04 10:57 51.58375 1.05980 18705 ft 385 kts 129°
2026-05-04 10:57 51.56753 1.09417 19299 ft 388 kts 129°
2026-05-04 10:58 51.55113 1.12887 19883 ft 391 kts 129°
2026-05-04 10:58 51.53461 1.16378 20456 ft 394 kts 129°
2026-05-04 10:58 51.51796 1.19890 21030 ft 397 kts 130°
2026-05-04 10:58 51.50119 1.23426 21601 ft 400 kts 130°
2026-05-04 10:59 51.48427 1.26988 22150 ft 403 kts 130°
2026-05-04 10:59 51.46722 1.30574 22695 ft 406 kts 130°
2026-05-04 10:59 51.45004 1.34178 23227 ft 408 kts 130°
2026-05-04 10:59 51.43270 1.37811 23727 ft 411 kts 130°
2026-05-04 11:00 51.41523 1.41454 24168 ft 414 kts 130°
2026-05-04 11:01 51.28943 1.67492 27149 ft 427 kts 132°
2026-05-04 11:02 51.27119 1.71249 27544 ft 429 kts 132°
2026-05-04 11:02 51.25307 1.74975 27916 ft 431 kts 132°
2026-05-04 11:05 51.07899 2.37583 32568 ft 459 kts 109°
2026-05-04 11:06 51.07151 2.42530 32816 ft 461 kts 109°
2026-05-04 11:06 51.06394 2.47491 33054 ft 462 kts 109°
2026-05-04 11:06 51.05635 2.52445 33419 ft 461 kts 110°
2026-05-04 11:06 51.04876 2.57382 33811 ft 459 kts 110°
2026-05-04 11:08 50.99521 2.91798 35362 ft 462 kts 109°
2026-05-04 11:10 50.94056 3.26213 36978 ft 458 kts 108°
2026-05-04 11:12 50.87964 3.63752 36989 ft 456 kts 109°
2026-05-04 11:12 50.86368 3.73451 36990 ft 454 kts 109°
2026-05-04 11:13 50.84767 3.83116 36992 ft 454 kts 109°
2026-05-04 11:13 50.83156 3.92790 37008 ft 455 kts 109°
2026-05-04 11:14 50.81531 4.02496 37013 ft 457 kts 109°
2026-05-04 11:16 50.74896 4.41578 37015 ft 462 kts 109°
2026-05-04 11:16 50.73208 4.51380 37010 ft 462 kts 110°
2026-05-04 11:17 50.71515 4.61161 37013 ft 462 kts 110°
2026-05-04 11:19 50.64577 4.99857 37013 ft 456 kts 112°
2026-05-04 11:19 50.62579 5.09324 37012 ft 455 kts 113°
2026-05-04 11:20 50.60590 5.18790 37002 ft 455 kts 113°
2026-05-04 11:20 50.58617 5.28272 37009 ft 457 kts 113°
2026-05-04 11:22 50.50799 5.66616 36986 ft 468 kts 106°
2026-05-04 11:23 50.49615 5.76695 36987 ft 470 kts 105°
2026-05-04 11:25 50.45024 6.11864 36970 ft 469 kts 106°
2026-05-04 11:25 50.43692 6.21875 36976 ft 469 kts 106°
2026-05-04 11:27 50.37563 6.66634 36981 ft 465 kts 107°
2026-05-04 11:28 50.36178 6.76515 36981 ft 464 kts 107°
2026-05-04 11:28 50.34787 6.86383 37011 ft 464 kts 107°
2026-05-04 11:29 50.33384 6.96260 37002 ft 466 kts 107°
2026-05-04 11:29 50.31973 7.06142 37015 ft 465 kts 107°
2026-05-04 11:33 50.21821 7.75424 37001 ft 467 kts 107°
2026-05-04 11:33 50.20339 7.85304 36978 ft 467 kts 107°
2026-05-04 11:34 50.18854 7.95150 36995 ft 466 kts 107°
2026-05-04 11:34 50.17360 8.04990 36993 ft 466 kts 107°
2026-05-04 11:35 50.15869 8.14751 37008 ft 466 kts 107°
2026-05-04 11:35 50.14359 8.24571 37002 ft 466 kts 108°
2026-05-04 11:36 50.12839 8.34407 36995 ft 467 kts 107°
2026-05-04 11:36 50.11310 8.44237 36981 ft 467 kts 107°
2026-05-04 11:37 50.09772 8.54066 36996 ft 467 kts 108°
2026-05-04 11:37 50.08224 8.63897 36994 ft 468 kts 108°
2026-05-04 11:38 50.05858 8.73154 37004 ft 456 kts 127°
2026-05-04 11:38 50.01882 8.80693 37009 ft 449 kts 138°
2026-05-04 11:39 49.97600 8.87760 36994 ft 449 kts 138°
2026-05-04 11:41 49.82679 9.12648 36990 ft 450 kts 137°
2026-05-04 11:41 49.78420 9.19749 37005 ft 450 kts 137°
2026-05-04 11:42 49.74187 9.26783 37011 ft 450 kts 137°
2026-05-04 11:42 49.69891 9.33903 37010 ft 450 kts 137°
2026-05-04 11:43 49.65651 9.40911 37005 ft 450 kts 137°
2026-05-04 11:43 49.61381 9.47949 37006 ft 449 kts 137°
2026-05-04 11:44 49.57106 9.54975 36991 ft 449 kts 137°
2026-05-04 11:44 49.52836 9.61974 37006 ft 448 kts 137°
2026-05-04 11:45 49.48565 9.68955 37021 ft 448 kts 137°
2026-05-04 11:45 49.44290 9.75924 37013 ft 448 kts 138°
2026-05-04 11:46 49.40014 9.82876 37023 ft 448 kts 138°
2026-05-04 11:46 49.35732 9.89818 37011 ft 448 kts 137°
2026-05-04 11:47 49.31446 9.96749 37019 ft 448 kts 137°
2026-05-04 11:47 49.27149 10.03677 37022 ft 449 kts 137°
2026-05-04 11:48 49.22845 10.10600 37016 ft 449 kts 137°
2026-05-04 11:48 49.18532 10.17517 37022 ft 449 kts 138°
2026-05-04 11:49 49.14211 10.24429 37015 ft 450 kts 137°
2026-05-04 11:49 49.09883 10.31333 37034 ft 450 kts 137°
2026-05-04 11:50 49.05549 10.38228 37013 ft 451 kts 137°
2026-05-04 11:50 49.01237 10.45072 37030 ft 451 kts 137°
2026-05-04 11:51 48.96890 10.51952 37038 ft 450 kts 137°
2026-05-04 11:51 48.92543 10.58814 37021 ft 451 kts 137°
2026-05-04 11:52 48.88191 10.65665 37033 ft 450 kts 138°
2026-05-04 11:52 48.83837 10.72505 37029 ft 450 kts 138°
2026-05-04 11:53 48.79494 10.79365 37004 ft 451 kts 136°
2026-05-04 11:53 48.75283 10.86431 37008 ft 452 kts 135°
2026-05-04 11:55 48.58455 11.14657 36997 ft 452 kts 136°
2026-05-04 11:56 48.54224 11.21670 36997 ft 452 kts 136°
2026-05-04 11:56 48.49990 11.28672 36991 ft 452 kts 136°
2026-05-04 11:57 48.45755 11.35658 36993 ft 451 kts 136°
2026-05-04 11:57 48.41519 11.42628 36994 ft 451 kts 136°
2026-05-04 11:58 48.37992 11.48415 36993 ft 451 kts 136°
2026-05-04 11:58 48.33750 11.55361 36992 ft 451 kts 136°
2026-05-04 11:59 48.28816 11.63420 36993 ft 451 kts 136°
2026-05-04 11:59 48.25215 11.69141 36989 ft 449 kts 139°
2026-05-04 12:00 48.20646 11.75481 36991 ft 447 kts 141°
2026-05-04 12:00 48.16025 11.81714 36993 ft 447 kts 141°
2026-05-04 12:01 48.11418 11.87968 36986 ft 447 kts 141°
2026-05-04 12:02 47.95379 12.09817 36976 ft 447 kts 141°
2026-05-04 12:03 47.90781 12.16047 36972 ft 446 kts 141°
2026-05-04 12:03 47.86180 12.22266 36967 ft 447 kts 141°
2026-05-04 12:04 47.81571 12.28479 36970 ft 447 kts 141°
2026-05-04 12:04 47.76960 12.34680 36971 ft 447 kts 141°
2026-05-04 12:05 47.72345 12.40873 36969 ft 447 kts 141°
2026-05-04 12:05 47.67721 12.47062 36965 ft 447 kts 141°
2026-05-04 12:06 47.63093 12.53231 36966 ft 447 kts 142°
2026-05-04 12:06 47.60641 12.56054 36786 ft 447 kts 148°
2026-05-04 12:06 47.58059 12.58609 36515 ft 446 kts 150°
2026-05-04 12:07 47.55454 12.61073 36251 ft 443 kts 150°
2026-05-04 12:07 47.52847 12.63513 35992 ft 444 kts 150°
2026-05-04 12:07 47.50235 12.65968 35749 ft 446 kts 150°
2026-05-04 12:07 47.47614 12.68452 35468 ft 447 kts 150°
2026-05-04 12:08 47.44999 12.70951 34830 ft 448 kts 150°
2026-05-04 12:08 47.42412 12.73438 34477 ft 442 kts 150°
2026-05-04 12:08 47.39845 12.75913 34015 ft 439 kts 150°
2026-05-04 12:08 47.37299 12.78367 33526 ft 435 kts 150°
2026-05-04 12:09 47.34781 12.80792 33093 ft 431 kts 150°
2026-05-04 12:09 47.32281 12.83196 32664 ft 427 kts 149°
2026-05-04 12:09 47.29804 12.85575 32240 ft 423 kts 149°
2026-05-04 12:09 47.27345 12.87932 31807 ft 420 kts 150°
2026-05-04 12:10 47.24904 12.90270 31406 ft 417 kts 149°
2026-05-04 12:10 47.22481 12.92587 31002 ft 414 kts 149°
2026-05-04 12:10 47.20068 12.94893 30593 ft 412 kts 149°
2026-05-04 12:10 47.17701 12.97154 30190 ft 410 kts 149°
2026-05-04 12:11 47.15315 12.99429 29745 ft 408 kts 149°
2026-05-04 12:11 47.12944 13.01685 29304 ft 405 kts 149°
2026-05-04 12:11 47.10591 13.03922 28874 ft 401 kts 149°
2026-05-04 12:11 47.08258 13.06138 28461 ft 398 kts 149°
2026-05-04 12:12 47.05946 13.08333 28041 ft 394 kts 149°
2026-05-04 12:12 47.03651 13.10509 27635 ft 392 kts 150°
2026-05-04 12:12 47.01369 13.12670 27220 ft 389 kts 149°
2026-05-04 12:12 46.99101 13.14815 26814 ft 387 kts 149°
2026-05-04 12:13 46.96850 13.16943 26405 ft 384 kts 149°
2026-05-04 12:14 46.81460 13.31434 23628 ft 370 kts 149°
2026-05-04 12:15 46.79297 13.33462 23161 ft 368 kts 149°
2026-05-04 12:15 46.77150 13.35475 22747 ft 365 kts 149°
2026-05-04 12:15 46.75021 13.37469 22357 ft 363 kts 149°
2026-05-04 12:15 46.72901 13.39452 21964 ft 361 kts 150°
2026-05-04 12:16 46.70791 13.41422 21584 ft 359 kts 149°
2026-05-04 12:16 46.68694 13.43380 21185 ft 357 kts 149°
2026-05-04 12:16 46.66610 13.45323 20810 ft 355 kts 149°
2026-05-04 12:16 46.64541 13.47251 20431 ft 353 kts 150°
2026-05-04 12:17 46.62480 13.49172 20048 ft 351 kts 150°
2026-05-04 12:17 46.60429 13.51081 19674 ft 349 kts 150°
2026-05-04 12:17 46.58392 13.52975 19295 ft 346 kts 150°
2026-05-04 12:17 46.56366 13.54834 18934 ft 341 kts 155°
2026-05-04 12:18 46.54183 13.56021 18583 ft 332 kts 172°
2026-05-04 12:18 46.51920 13.56260 18341 ft 322 kts 186°
2026-05-04 12:18 46.49736 13.55742 18081 ft 316 kts 193°
2026-05-04 12:18 46.47596 13.55060 17818 ft 314 kts 194°
2026-05-04 12:19 46.45450 13.54383 17556 ft 321 kts 193°
2026-05-04 12:19 46.43248 13.53713 17267 ft 323 kts 193°
2026-05-04 12:19 46.41059 13.53059 16905 ft 320 kts 193°
2026-05-04 12:19 46.38871 13.52402 16419 ft 320 kts 193°
2026-05-04 12:20 46.36707 13.51750 16061 ft 316 kts 193°
2026-05-04 12:20 46.34556 13.51102 15660 ft 316 kts 193°
2026-05-04 12:20 46.32399 13.50453 15255 ft 316 kts 193°
2026-05-04 12:20 46.30275 13.49813 14869 ft 316 kts 192°
2026-05-04 12:21 46.28119 13.49164 14463 ft 317 kts 192°
2026-05-04 12:21 46.25964 13.48518 14096 ft 316 kts 192°
2026-05-04 12:21 46.23807 13.47872 13646 ft 317 kts 192°
2026-05-04 12:21 46.21623 13.47218 13232 ft 315 kts 192°
2026-05-04 12:22 46.19510 13.46599 12972 ft 308 kts 192°
2026-05-04 12:22 46.17443 13.46000 12486 ft 301 kts 192°
2026-05-04 12:22 46.15391 13.45407 11833 ft 301 kts 192°
2026-05-04 12:22 46.13339 13.44813 11257 ft 299 kts 192°
2026-05-04 12:23 46.11306 13.44225 10724 ft 297 kts 193°
2026-05-04 12:23 46.09312 13.43649 10385 ft 287 kts 193°
2026-05-04 12:23 46.07379 13.43090 10048 ft 280 kts 193°
2026-05-04 12:23 46.05488 13.42543 9591 ft 275 kts 193°
2026-05-04 12:24 46.03627 13.42004 9182 ft 270 kts 193°
2026-05-04 12:24 46.01810 13.41479 8859 ft 262 kts 193°
2026-05-04 12:24 46.00048 13.40970 8559 ft 255 kts 193°
2026-05-04 12:24 45.98321 13.40471 8273 ft 252 kts 193°
2026-05-04 12:25 45.96596 13.39973 8006 ft 256 kts 193°
2026-05-04 12:25 45.94818 13.39459 7738 ft 266 kts 193°
2026-05-04 12:25 45.92987 13.38937 7444 ft 270 kts 191°
2026-05-04 12:25 45.91134 13.38591 7221 ft 267 kts 188°
2026-05-04 12:26 45.89291 13.38319 6937 ft 266 kts 187°
2026-05-04 12:26 45.87464 13.38050 6783 ft 260 kts 187°
2026-05-04 12:26 45.85701 13.37779 6709 ft 250 kts 187°
2026-05-04 12:26 45.84013 13.37512 6635 ft 236 kts 188°
2026-05-04 12:27 45.82446 13.37261 6532 ft 217 kts 188°
2026-05-04 12:27 45.81002 13.37016 6381 ft 202 kts 192°
2026-05-04 12:27 45.79837 13.36093 6055 ft 192 kts 235°
2026-05-04 12:27 45.79238 13.34376 5662 ft 196 kts 243°
2026-05-04 12:28 45.78650 13.32621 5394 ft 194 kts 243°
2026-05-04 12:28 45.78066 13.30902 5085 ft 191 kts 242°
2026-05-04 12:28 45.77489 13.29192 4700 ft 191 kts 242°
2026-05-04 12:28 45.76907 13.27477 4328 ft 191 kts 242°
2026-05-04 12:29 45.76335 13.25786 4021 ft 186 kts 241°
2026-05-04 12:29 45.75821 13.24094 3629 ft 188 kts 255°
2026-05-04 12:29 45.75996 13.22230 3240 ft 197 kts 297°
2026-05-04 12:29 45.76932 13.20933 3286 ft 190 kts 330°
2026-05-04 12:30 45.78300 13.20584 3355 ft 212 kts 358°
2026-05-04 12:30 45.79774 13.20574 3293 ft 207 kts 358°
2026-05-04 12:30 45.81164 13.20652 3283 ft 194 kts 12°
2026-05-04 12:30 45.82285 13.21612 3318 ft 193 kts 51°
2026-05-04 12:31 45.82837 13.23315 3304 ft 188 kts 88°
2026-05-04 12:31 45.82873 13.25157 3297 ft 184 kts 93°
2026-05-04 12:31 45.82869 13.26977 3167 ft 188 kts 92°
2026-05-04 12:31 45.82871 13.28894 2764 ft 197 kts 94°
2026-05-04 12:32 45.82866 13.30910 2277 ft 206 kts 94°
2026-05-04 12:32 45.82836 13.35034 1452 ft 204 kts 94°
2026-05-04 12:32 45.82823 13.36976 1149 ft 185 kts 92°
2026-05-04 12:33 45.82853 13.38713 925 ft 164 kts 94°
2026-05-04 12:33 45.82833 13.40300 732 ft 151 kts 98°
2026-05-04 12:33 45.82803 13.41799 536 ft 154 kts 96°
2026-05-04 12:33 45.82803 13.43320 332 ft 153 kts 94°
2026-05-04 12:34 45.82797 13.44816 112 ft 148 kts 94°
2026-05-04 12:34 45.82786 13.46202 45 ft 115 kts 85°
2026-05-04 12:34 45.82783 13.47037 45 ft 61 kts 90°
2026-05-04 12:34 45.82781 13.47531 47 ft 24 kts 90°
2026-05-04 12:35 45.82741 13.47672 46 ft 13 kts 136°
2026-05-04 12:35 45.82686 13.47742 46 ft 9 kts 141°
2026-05-04 12:35 45.82680 13.47748 46 ft 0 kts 140°
2026-05-04 12:35 45.82680 13.47749 46 ft 0 kts 140°
2026-05-04 12:36 45.82679 13.47749 46 ft 1 kts 140°
2026-05-04 12:36 45.82649 13.47785 46 ft 9 kts 140°
2026-05-04 12:36 45.82594 13.47851 46 ft 12 kts 140°
2026-05-04 12:36 45.82508 13.47954 46 ft 19 kts 140°
2026-05-04 12:37 45.82406 13.48076 46 ft 19 kts 140°
2026-05-04 12:37 45.82308 13.48197 46 ft 18 kts 138°
2026-05-04 12:37 45.82262 13.48350 46 ft 18 kts 80°
2026-05-04 12:37 45.82281 13.48497 44 ft 10 kts 81°
2026-05-04 12:38 45.82254 13.48532 46 ft 3 kts 170°
2026-05-04 12:38 45.82235 13.48537 46 ft 3 kts 170°
2026-05-04 12:38 45.82216 13.48541 46 ft 2 kts 171°
2026-05-04 12:38 45.82208 13.48543 46 ft 0 kts 171°